This is the latest recevied weather packets stored in our database for station/object SP1BMW-13. If no packets are shown the sender has not sent any weather packets the latest 10 day(s).
| Time | Temp. | Humidity | Pressure | Rain* | Wind** | Luminosity | Snow |
|---|---|---|---|---|---|---|---|
| 1787815516 | 20° C | 60% | 1021 hPa | 0 mm | 0.89 m/s, 32° | 282 W/m² | - |
| 1787815456 | 20° C | 61% | 1020.9 hPa | 0 mm | 0.45 m/s, 91° | 279 W/m² | - |
| 1787815396 | 20° C | 60% | 1020.9 hPa | 0 mm | 0.45 m/s, 15° | 277 W/m² | - |
| 1787815336 | 20° C | 61% | 1020.9 hPa | 0 mm | 1.34 m/s, 36° | 274 W/m² | - |
| 1787815276 | 20° C | 61% | 1021 hPa | 0 mm | 1.34 m/s, 43° | 272 W/m² | - |
| 1787815216 | 20° C | 60% | 1021 hPa | 0 mm | 1.34 m/s, 19° | 269 W/m² | - |
| 1787815156 | 20° C | 60% | 1020.7 hPa | 0 mm | 2.24 m/s, 39° | 267 W/m² | - |
| 1787815096 | 20° C | 59% | 1020.9 hPa | 0 mm | 1.79 m/s, 45° | 264 W/m² | - |
| 1787815036 | 20° C | 60% | 1021 hPa | 0 mm | 0.89 m/s, 113° | 260 W/m² | - |
| 1787814976 | 20° C | 60% | 1020.8 hPa | 0 mm | 0.45 m/s, 44° | 257 W/m² | - |
| 1787814916 | 20° C | 60% | 1020.9 hPa | 0 mm | 0.89 m/s, 55° | 256 W/m² | - |
| 1787814856 | 20° C | 62% | 1021 hPa | 0 mm | 0 m/s | 252 W/m² | - |
| 1787814796 | 20° C | 60% | 1021.1 hPa | 0 mm | 0.45 m/s, 55° | 250 W/m² | - |
| 1787814736 | 20° C | 60% | 1021 hPa | 0 mm | 1.79 m/s, 31° | 247 W/m² | - |
| 1787814676 | 20° C | 62% | 1020.8 hPa | 0 mm | 0.89 m/s, 53° | 245 W/m² | - |
| 1787814616 | 20° C | 61% | 1021 hPa | 0 mm | 0.89 m/s, 41° | 242 W/m² | - |
| 1787814556 | 20° C | 62% | 1021 hPa | 0 mm | 0 m/s | 240 W/m² | - |
| 1787814496 | 20° C | 60% | 1021 hPa | 0 mm | 1.34 m/s, 25° | 237 W/m² | - |
| 1787814436 | 20° C | 61% | 1020.9 hPa | 0 mm | 0 m/s | 235 W/m² | - |
| 1787814376 | 20° C | 61% | 1021 hPa | 0 mm | 0 m/s | 232 W/m² | - |
| 1787814316 | 20° C | 60% | 1020.9 hPa | 0 mm | 0 m/s | 230 W/m² | - |
| 1787814256 | 20° C | 60% | 1020.9 hPa | 0 mm | 0.89 m/s, 117° | 228 W/m² | - |
| 1787814196 | 20° C | 61% | 1020.9 hPa | 0 mm | 0.45 m/s, 149° | 226 W/m² | - |
| 1787814137 | 20° C | 61% | 1020.8 hPa | 0 mm | 0.45 m/s, 101° | 224 W/m² | - |
| 1787814076 | 20° C | 61% | 1020.8 hPa | 0 mm | 0.89 m/s, 42° | 221 W/m² | - |
* Rain latest hour (hover to see other rain measurements)
** Current wind speed in m/s (hover to see current wind gust speed)